Regional Weather Roundup
Issued by NWS

Home | Current Version | Previous Version | Graphics & Text | Print | Product List | Glossary On
Versions: 1 2 3 4 5 6 7 8 9 10 11 12 13 14 15 16 17 18 19 20 21 22 23 24 25 26 27 28 29 30 31 32 33 34 35 36 37 38 39 40 41 42 43 44 45 46 47 48 49 50
000
ASUS45 KPSR 042000
RWRAZ

ARIZONA REGIONAL HOURLY WEATHER ROUNDUP
NATIONAL WEATHER SERVICE PHOENIX AZ
100 PM MST MON MAY 04 2015

NOTE: FAIR INDICATES FEW OR NO CLOUDS BELOW 12,000 FEET WITH NO
SIGNIFICANT WEATHER AND/OR OBSTRUCTIONS TO VISIBILITY.

AZZ001>003-036-042100-
NORTHWEST ARIZONA

CITY           SKY/WX    TMP DP  RH WIND       PRES   REMARKS
KINGMAN        CLOUDY    67  44  43 N22       29.96R
$$

AZZ004>008-015-016-018-042100-
NORTH CENTRAL ARIZONA

CITY           SKY/WX    TMP DP  RH WIND       PRES   REMARKS
GRAND CANYON   CLOUDY    48  44  86 SW9       30.05S
WILLIAMS       CLOUDY    54  41  62 S5        30.10F
PRESCOTT       LGT RAIN  56  44  64 NW8       30.01F
FLAGSTAFF      PTSUNNY   57  36  45 S13       30.03F
PAYSON         HVY RAIN  59  50  72 S8G16     30.01S
PAGE           LGT RAIN  67  45  45 SE24      29.93S
$$

AZZ009>014-017-042100-
NORTHEAST ARIZONA

CITY           SKY/WX    TMP DP  RH WIND       PRES   REMARKS
WINSLOW        NOT AVBL
SAINT JOHNS    MOSUNNY   64  45  49 VRB5      29.96F
WINDOW ROCK    PTSUNNY   64  38  38 SE8       30.01F
$$

AZZ023-042100-
GREATER PHOENIX AREA

CITY           SKY/WX    TMP DP  RH WIND       PRES   REMARKS
PHOENIX        MOSUNNY   83  50  31 SW8       29.82F
GLENDALE       MOSUNNY   81  48  32 SW6       29.85F
DEER VALLEY    MOSUNNY   78  49  35 W9G18     29.84F
SCOTTSDALE     SUNNY     80  48  32 VRB6G16   29.85F
MESA-FALCON    MOSUNNY   82  50  32 SW12      29.84F
MESA-GATEWAY   MOSUNNY   79  50  36 SW9       29.86F
$$

AZZ027-028-042100-
SOUTHWEST MARICOPA COUNTY AND PINAL COUNTY

CITY           SKY/WX    TMP DP  RH WIND       PRES   REMARKS
CASA GRANDE    SUNNY     79  50  36 CALM      29.83F
$$

AZZ503-504-507>509-042100-
SOUTHEAST ARIZONA

CITY           SKY/WX    TMP DP  RH WIND       PRES   REMARKS
TUCSON         PTSUNNY   76  48  37 W10       29.90F
RYAN FIELD       N/A     75  54  46 SW6       29.90F
NOGALES        MOSUNNY   77  39  25 S17G24    29.95F
SIERRA VISTA   MOSUNNY   73  30  20 SW13G24   29.97F
SAFFORD        MOSUNNY   80  42  25 SE14G20   29.83F
$$

AZZ020-021-025-026-031-042100-
SOUTHWEST ARIZONA

CITY           SKY/WX    TMP DP  RH WIND       PRES   REMARKS
YUMA           PTSUNNY   82  51  34 VRB6      29.84F
$$

CAZ031-033-041-043-047-048-061-042100-
SOUTHERN CALIFORNIA

CITY           SKY/WX    TMP DP  RH WIND       PRES   REMARKS
DOWNTOWN L.A.  MOSUNNY   67  51  56 VRB5      29.97S
L.A. AIRPORT   PTSUNNY   63  51  65 W14       29.99S
SAN DIEGO      MOSUNNY   67  52  58 NW14      29.99F
BURBANK        SUNNY     67  49  52 S9        29.96F
ONTARIO        MOSUNNY   70  48  45 W9        29.95F
RIVERSIDE      MOSUNNY   70  49  47 VRB6      29.95F
PALM SPRINGS   SUNNY     82  49  31 CALM      29.88F
EL CENTRO NAS  MOSUNNY   83  51  33 VRB6      29.84F
IMPERIAL       SUNNY     85  52  32 MISG      29.82F
BLYTHE         SUNNY     86  52  30 S10       29.83F
$$

NVZ020-UTZ003-042100-
SOUTHERN NEVADA-UTAH

CITY           SKY/WX    TMP DP  RH WIND       PRES   REMARKS
LAS VEGAS      NOT AVBL
SALT LAKE CITY PTSUNNY   74  41  30 NW9       29.88F
$$

NMZ009-TXZ055-042100-
NEW MEXICO-WEST TEXAS

CITY           SKY/WX    TMP DP  RH WIND       PRES   REMARKS
ALBUQUERQUE    PTSUNNY   73  35  25 SE8       29.94F
EL PASO        PTSUNNY   82  49  31 VRB3      29.85F
$$


........................KEY........................
SKY/WX - SKY CONDITION/WEATHER
TMP    - TEMPERATURE IN FAHRENHEIT
DP     - DEW POINT IN FAHRENHEIT
RH     - RELATIVE HUMIDITY IN PERCENT
WIND   - DIRECTION AND SPEED IN MILES PER HOUR (MPH)
VRB    - VARIABLE WIND DIRECTION
PRES   - MEAN SEA LEVEL PRESSURE IN INCHES OF MERCURY
         F - FALLING PRESSURE   R - RISING PRESSURE
         S - STEADY PRESSURE
VSB    - VISIBILITY IN MILES
HX     - HEAT INDEX IN FAHRENHEIT
WCI    - WIND CHILL INDEX IN FAHRENHEIT
TC     - TEMPERATURE IN CELSIUS WHICH IS ALSO KNOWN AS
         TEMPERATURE IN CENTIGRADE
AFB    - AIR FORCE BASE
         LUKE AFB IS LUKE AIR FORCE BASE
         DAVIS-MONTHAN IS DAVIS-MONTHAN AIR FORCE BASE
NAS    - NAVAL AIR STATION
         EL CENTRO NAS IS EL CENTRO NAVAL AIR STATION
N/A    - NOT AVAILABLE




USA.gov is the U.S. government's official web portal to all federal, state and local government web resources and services.